{"data":{"norad_id":59381,"intl_designator":"2024-062H","name":"STARLINK-31713","alt_names":[],"object_type":"PAYLOAD","status":"ACTIVE","operator":null,"country":"US","launch_date":"2024-04-02","launch_site_code":"AFWTR","launch_vehicle":null,"mission":null,"orbit_class":"UNKNOWN","rcs_meters":null,"size_class":null,"mass_kg":null,"dimensions":null,"purposes":["comms"],"wikipedia_slug":null,"has_3d_model":false,"image_url":null,"decayed_at":null,"tle_current":{"epoch":"2026-09-21T21:43:07.392288Z","epoch_age_seconds":40874,"freshness":"FRESH","line1":"1 59381U 24062H   26264.90494667  .00002581  00000+0  87518-4 0  9993","line2":"2 59381  53.1595  62.7983 0001137  85.3312 274.7821 15.34391819139698","mean_motion":15.34391819,"eccentricity":0.0001137,"inclination_deg":53.1595,"raan_deg":62.7983,"arg_perigee_deg":85.3312,"mean_anomaly_deg":274.7821,"bstar":8.7518e-5,"rev_number":13969,"period_min":93.848258454511,"perigee_km":461.9497496712,"apogee_km":463.50536227122,"semimajor_km":6840.8645559712,"source":"CELESTRAK","updated_at":"2026-09-22T09:00:48.909287Z"}}}